COSMOS 2491 DEB, 44987

Orbit data source: Space-Track

COSMOS 2491 DEB, 44987 is space debris in LEO originally from a launch on Wed, 25 Dec 2013 UTC launched from the Plesetsk Missile And Space Complex (PKMTR). Debris objects in space refer to the collection of defunct objects orbiting the Earth. Examples of debris include non-operational satellites, rocket bodies, and fragments generated from explosions, collisions, or faulty payload assembly.

Loading next visibility...
Identifier
44987, 2013-076H
Orbit
LEO
Country
Flag of CISCIS
Related business
Manufacturer
TsNIIKhM
Mission
Spacecraft
Bus & Motor
Unknown
Mass
Unknown
Launch date (UTC)
2013-12-25 (12 years ago)
Launch vehicle
Unknown
Launch site
Plesetsk Missile And Space Complex (PKMTR)
Object type
Payload
Rocket body
Debris
Shape & HBR
Unknown shape, 0.1 m
Radar Cross Section
Small (<0.1 m²)

Expand to show TLE details & history
Last TLE update: 1 week ago

TLE from 1 week ago
0 COSMOS 2491 DEB
1 44987U 13076H   25279.25176780  .00004985  00000-0  22627-1 0  9996
2 44987  82.4105 262.3588 0212505 353.7536   6.0916 12.70865192266024
Epoch: 2025-10-06T06:02Z
TLE epoch observation values (Epoch: 2025-10-06T06:02:32.737Z)
Latitude
-0.00006°
Longitude
156.5647°
Altitude
1,217.269 km
Speed
7.322 km/s
True Right ascension
17h 29m 26s
True Declination
0° 00' 00"
Sunlit
Object was in daylight at epoch
Visualization orbit readout
Latitude
Unknown
Longitude
Unknown
Altitude
Unknown
Speed
Unknown
Apparent Right ascension
Unknown
Apparent Declination
Unknown
Sunlit
N/A
Visualization observer readout
Local Sidereal Time
21:34:44
Azimuth
Unknown
Elevation
Unknown
Doppler factor
Unknown
Orbital elements
Apogee altitude
1,540.504 km
Perigee altitude
1,210.957 km
Semi-major axis
7,753.868 km
Eccentricity
0.02125
Inclination
82.4105°
RAAN
262.3588°
Arg. of periapsis
353.7536°
True anomaly
6.35701°
Mean anomaly
6.0916°
Eccentric anomaly
6.22359°
Mean motion
3.17882 °/min
Orbital period
113.25 mins
BSTAR
0.022627
Loading maneuver chart data...
Computing Atmospheric mass density...
Loading historical data...
Loading historical data...
Loading historical data...
Loading historical data...
Loading historical data...
Loading historical data...
Loading historical data...

Documentation

Showing up to 5 results
|